This is the latest recevied weather packets stored in our database for station/object KD0SBN-3. If no packets are shown the sender has not sent any weather packets the latest 1 day(s).
| Time | Temp. | Humidity | Pressure | Rain* | Wind** | Luminosity | Snow |
|---|---|---|---|---|---|---|---|
| 1778056250 | -1.67° C | 97% | 1018.9 hPa | 0 mm | - | 0 W/m² | - |
| 1778055946 | -1.67° C | 97% | 1019.1 hPa | 0 mm | - | 0 W/m² | - |
| 1778054130 | -2.22° C | 97% | 1019.4 hPa | 0 mm | - | 0 W/m² | - |
| 1778053524 | -2.22° C | 97% | 1019.4 hPa | 0 mm | - | 0 W/m² | - |
| 1778053221 | -1.67° C | 97% | 1019.4 hPa | 0 mm | - | 0 W/m² | - |
| 1778052919 | -1.67° C | 97% | 1019.4 hPa | 0 mm | - | 0 W/m² | - |
| 1778052616 | -1.67° C | 97% | 1019.6 hPa | 0 mm | - | 0 W/m² | - |
| 1778052313 | -1.67° C | 97% | 1019.6 hPa | 0 mm | - | 0 W/m² | - |
| 1778050799 | -1.67° C | 97% | 1019.4 hPa | 0 mm | - | 0 W/m² | - |
| 1778050497 | -1.67° C | 97% | 1019.5 hPa | 0 mm | - | 0 W/m² | - |
| 1778049586 | -1.11° C | 97% | 1019.6 hPa | 0 mm | - | 0 W/m² | - |
| 1778049284 | -1.67° C | 97% | 1019.6 hPa | 0 mm | - | 0 W/m² | - |
| 1778048375 | -1.67° C | 97% | 1019.2 hPa | 0 mm | - | 0 W/m² | - |
| 1778048072 | -1.67° C | 97% | 1019.1 hPa | 0 mm | - | 0 W/m² | - |
| 1778047165 | -1.11° C | 97% | 1019.4 hPa | 0 mm | - | 0 W/m² | - |
| 1778046862 | -1.11° C | 97% | 1019.6 hPa | 0 mm | - | 0 W/m² | - |
| 1778045951 | -1.11° C | 97% | 1019.5 hPa | 0 mm | - | 0 W/m² | - |
| 1778045650 | -1.11° C | 97% | 1019.6 hPa | 0 mm | - | 0 W/m² | - |
| 1778045047 | -1.11° C | 97% | 1019.8 hPa | 0 mm | - | 0 W/m² | - |
| 1778044744 | -1.11° C | 97% | 1019.8 hPa | 0 mm | - | 0 W/m² | - |
| 1778044440 | -1.11° C | 97% | 1019.9 hPa | 0 mm | - | 0 W/m² | - |
| 1778044137 | -1.11° C | 97% | 1019.6 hPa | 0 mm | - | 0 W/m² | - |
| 1778043835 | -1.11° C | 97% | 1019.4 hPa | 0 mm | - | 0 W/m² | - |
| 1778043532 | -1.11° C | 97% | 1019.2 hPa | 0 mm | - | 0 W/m² | - |
| 1778043228 | -0.56° C | 97% | 1019.4 hPa | 0 mm | - | 0 W/m² | - |
* Rain latest hour (hover to see other rain measurements)
** Current wind speed in m/s (hover to see current wind gust speed)